Location: Balaclava NSW 2575, Australia
(34.4510°S, 150.4953°E)
Time: 01:57:38
(UTC+10:00)

A-11 Canister half - Pass Details

Date: 21 June 2021
Orbit: 1513 x 1687 km, 47.2° (Epoch: 28 July)

Event Time Altitude Azimuth Distance (km) Brightness Sun altitude
Rises 19:46:55 0° 245° (WSW) 4,751 12.3 -34.4°
Reaches altitude 10° 19:50:14 10° 237° (WSW) 3,791 11.6 -35.1°
Enters shadow 19:58:29 41° 179° (S) 2,209 9.6 -36.8°
